Location: Rodanthe
(35.5920°N, 75.4670°W)
Time: 19:43:45
(UTC-05:00)

ISS - All Passes

Search period start: 05 December 2016 00:00
Search period end: 15 December 2016 00:00
Orbit: 401 x 410 km, 51.6° (Epoch: 06 December)

Date Brightness Start Highest point End Pass type
(mag) Time Alt. Az. Time Alt. Az. Time Alt. Az.
05 Dec - 00:59:17 10° W 01:00:55 13° SW 01:02:32 10° SSW night (unlit)
05 Dec - 15:59:16 10° SW 16:02:32 82° SE 16:05:50 10° NE daylight
05 Dec - 17:37:38 10° WNW 17:39:24 14° NNW 17:41:11 10° N visible
05 Dec - 22:29:51 10° NNW 22:32:42 26° NE 22:35:34 10° E night (unlit)
06 Dec - 00:06:19 10° WNW 00:09:09 26° SW 00:11:59 10° S night (unlit)
06 Dec - 15:07:37 10° SSW 15:10:40 36° SE 15:13:43 10° ENE daylight
06 Dec - 16:44:39 10° W 16:47:14 21° NNW 16:49:50 10° NNE daylight
06 Dec - 21:38:22 10° NNW 21:40:34 16° NNE 21:42:46 10° ENE night (unlit)
06 Dec - 23:14:04 10° NW 23:17:19 57° SW 23:20:33 10° SE night (unlit)
07 Dec - 14:16:35 10° S 14:18:51 18° SE 14:21:09 10° E daylight
07 Dec - 15:52:05 10° WSW 15:55:08 36° NW 15:58:14 10° NNE daylight
07 Dec - 20:47:19 10° N 20:48:20 11° NNE 20:49:21 10° NE night (unlit)
07 Dec - 22:22:05 10° NW 22:25:23 65° NE 22:28:39 10° ESE night (unlit)
08 Dec - 14:59:52 10° SW 15:03:07 74° NW 15:06:24 10° NE daylight
08 Dec - 16:38:50 10° NW 16:40:07 12° NNW 16:41:24 10° N daylight
08 Dec - 21:30:19 10° NNW 21:33:21 32° NE 21:36:22 10° ESE night (unlit)
08 Dec - 23:07:10 10° W 23:09:41 20° SW 23:12:11 10° S night (unlit)
09 Dec - 14:08:01 10° SSW 14:11:11 49° SE 14:14:23 10° ENE daylight
09 Dec - 15:45:33 10° WNW 15:47:53 18° NNW 15:50:12 10° NNE daylight
09 Dec - 20:38:42 10° NNW 20:41:12 19° NNE 20:43:42 10° E night (unlit)
09 Dec - 22:14:41 10° WNW 22:17:50 42° SW 22:20:58 10° SSE night (unlit)
10 Dec - 13:16:40 10° S 13:19:19 23° SE 13:21:59 10° ENE daylight
10 Dec - 14:52:48 10° W 14:55:42 29° NW 14:58:38 10° NNE daylight
10 Dec - 19:47:23 10° N 19:48:58 13° NNE 19:50:33 10° NE night (unlit)
10 Dec - 21:22:34 10° NW 21:25:53 87° NE 21:29:11 10° SE night (unlit)
11 Dec - 12:26:27 10° SE 12:27:31 11° SE 12:28:34 10° ESE daylight
11 Dec - 14:00:25 10° WSW 14:03:37 55° NW 14:06:51 10° NE daylight
11 Dec - 15:40:23 10° NNW 15:40:44 10° NNW 15:41:03 10° NNW daylight
11 Dec - 20:30:41 10° NW 20:33:51 41° NE 20:37:00 10° ESE night (unlit)
11 Dec - 22:08:03 10° W 22:10:05 15° SW 22:12:06 10° SSW night (unlit)
12 Dec - 13:08:22 10° SW 13:11:36 68° SE 13:14:52 10° NE daylight
12 Dec - 14:46:26 10° WNW 14:48:25 15° NNW 14:50:24 10° N daylight
12 Dec - 19:38:58 10° NNW 19:41:42 23° NNE 19:44:27 10° E night (unlit)
12 Dec - 21:15:15 10° WNW 21:18:13 31° SW 21:21:11 10° SSE night (unlit)
13 Dec - 12:16:47 10° SSW 12:19:40 30° SE 12:22:36 10° ENE daylight
13 Dec - 13:53:28 10° W 13:56:10 23° NNW 13:58:54 10° NNE daylight
13 Dec - 18:47:29 10° N 18:49:28 15° NNE 18:51:27 10° ENE visible
13 Dec - 20:23:00 10° NW 20:26:16 70° SW 20:29:33 10° SE night (unlit)
14 Dec - 11:25:53 10° SSE 11:27:48 15° SE 11:29:44 10° E daylight
14 Dec - 13:00:53 10° WSW 13:04:01 42° NW 13:07:10 10° NE daylight
14 Dec - 17:56:53 10° NNE 17:57:07 10° NNE 17:57:22 10° NNE visible
14 Dec - 19:30:59 10° NW 19:34:14 54° NE 19:37:28 10° ESE visible
14 Dec - 21:09:07 10° WSW 21:10:21 12° SW 21:11:35 10° SSW night (unlit)
